User: anonymous   Login
Location: Unspecified
(0.0000°N, 0.0000°E)
Time: 09:23:32
(UTC+00:00)
Language:

EXOCUBE - Orbit

View from above orbital plane
View from above orbital plane
View from above satellite
View from above satellite

Ground track
Ground track

The orbit data is extracted from the following two-line orbital elements,

1 40380U 15003E   17086.93369137 +.00002382 +00000-0 +11539-3 0  9994
2 40380 099.1219 251.8126 0145788 281.3846 077.1033 15.11103717118512
Epoch (UTC): 27 March 2017 22:24:30
Eccentricity: 0.0145788
inclination: 99.1219°
perigee height: 432 km
apogee height: 633 km
right ascension of ascending node: 251.8126°
argument of perigee: 281.3846°
revolutions per day: 15.11103717
mean anomaly at epoch: 77.1033°
orbit number at epoch: 11851

The dashed part of the orbit path shows where the satellite is in the earth's shadow,  

DLR